Fresno, CA

7:26 PM PST on November 13, 2019 (GMT -0800)
Fresno Yosemite International

Weather History for KFAT - October, 2019

Change the Weather History Date:

Thursday, October 17, 2019

  Actual Average Record
Temperature  
Mean Temperature 66 °F 66 °F  
Max Temperature 75 °F 79 °F 97 °F (1959)
Min Temperature 57 °F 53 °F 36 °F (1893)
Degree Days  
Heating Degree Days 0    
Month to date heating degree days 7  
Since 1 July heating degree days 13  
Cooling Degree Days 1    
Month to date cooling degree days 44  
Year to date cooling degree days 2364  
Growing Degree Days 16 (Base 50)    
Moisture  
Dew Point 46 °F    
Average Humidity 57    
Maximum Humidity 80    
Minimum Humidity 33    
Precipitation  
Precipitation 0.00 in 0.03 in 0.54 in (1934)
Month to date precipitation 0.00 0.25  
Year to date precipitation 9.52 8.28  
Snow  
Snow 0.00 in - - ()
Month to date snowfall 0.0  
Since 1 July snowfall 0.0  
Since 1 September snowfall 0.0  
Snow Depth 0.00 in    
Sea Level Pressure  
Sea Level Pressure 29.87 in    
Wind  
Wind Speed 15 mph (NW)    
Max Wind Speed 23 mph    
Max Gust Speed 31 mph    
Visibility 10 miles    
Events      
T = Trace of Precipitation, MM = Missing Value Source: NWS Daily Summary

Daily Weather History Graph

Daily Weather History Graph

Search for Another Location

Airport or City:

Astronomy

Oct. 17, 2019 Rise Set
Actual Time 7:08 AM PDT 6:19 PM PDT
Civil Twilight 6:41 AM PDT 6:45 PM PDT
Nautical Twilight 6:11 AM PDT 7:16 PM PDT
Astronomical Twilight 5:41 AM PDT 7:45 PM PDT
Moon 9:00 PM PDT (10/17) 10:40 AM PDT (10/17)
Length of Visible Light 12h 04m
Length of Day
11h 11m
Waning Gibbous, 86% of the Moon is Illuminated
Oct 17
Waning Gibbous
Oct 21
Last Quarter
Oct 27
New
Nov 4
First Quarter
Nov 12
Full

Hourly Weather History & Observations

Time (PDT) Temp. Dew Point Humidity Pressure Visibility Wind Dir Wind Speed Gust Speed Precip Events Conditions
12:53 AM 63.0 °F 45.0 °F 52% 29.84 in 10.0 mi NNW 10.4 mph - N/A   Mostly Cloudy
1:53 AM 62.1 °F 45.0 °F 53% 29.84 in 10.0 mi NW 17.3 mph - N/A   Mostly Cloudy
2:53 AM 61.0 °F 45.0 °F 56% 29.84 in 10.0 mi NW 9.2 mph - N/A   Mostly Cloudy
3:53 AM 61.0 °F 48.9 °F 64% 29.83 in 10.0 mi NW 11.5 mph - N/A   Scattered Clouds
4:53 AM 59.0 °F 48.9 °F 69% 29.84 in 10.0 mi WNW 8.1 mph - N/A   Partly Cloudy
5:53 AM 59.0 °F 51.1 °F 75% 29.86 in 10.0 mi NW 9.2 mph - N/A   Partly Cloudy
6:53 AM 57.9 °F 51.1 °F 78% 29.86 in 10.0 mi NW 11.5 mph - N/A   Partly Cloudy
8:53 AM 62.1 °F 53.1 °F 72% 29.88 in 10.0 mi NW 15.0 mph - N/A   Clear
9:53 AM 66.0 °F 53.1 °F 63% 29.90 in 10.0 mi NW 17.3 mph - N/A   Scattered Clouds
10:53 AM 68.0 °F 52.0 °F 56% 29.90 in 10.0 mi NW 13.8 mph - N/A   Scattered Clouds
11:53 AM 70.0 °F 51.1 °F 51% 29.90 in 10.0 mi WNW 15.0 mph - N/A   Scattered Clouds
12:53 PM 72.0 °F 48.9 °F 44% 29.89 in 10.0 mi WNW 17.3 mph - N/A   Partly Cloudy
1:53 PM 73.9 °F 42.1 °F 32% 29.87 in 10.0 mi NW 20.7 mph - N/A   Partly Cloudy
2:53 PM 73.0 °F 46.0 °F 38% 29.87 in 10.0 mi NW 18.4 mph - N/A   Partly Cloudy
3:53 PM 73.0 °F 44.1 °F 35% 29.86 in 10.0 mi WNW 17.3 mph 27.6 mph N/A   Partly Cloudy
4:53 PM 73.0 °F 43.0 °F 34% 29.86 in 10.0 mi NW 17.3 mph - N/A   Partly Cloudy
5:53 PM 71.1 °F 41.0 °F 34% 29.85 in 10.0 mi NW 16.1 mph - N/A   Partly Cloudy
6:53 PM 68.0 °F 39.9 °F 36% 29.86 in 10.0 mi NW 13.8 mph - N/A   Clear
7:53 PM 66.0 °F 41.0 °F 40% 29.88 in 10.0 mi WNW 15.0 mph - N/A   Clear
8:53 PM 64.9 °F 39.0 °F 39% 29.88 in 10.0 mi NW 16.1 mph - N/A   Clear
9:53 PM 64.0 °F 39.0 °F 40% 29.90 in 10.0 mi NW 13.8 mph - N/A   Clear
10:53 PM 61.0 °F 43.0 °F 52% 29.91 in 10.0 mi NW 13.8 mph - N/A   Clear
11:53 PM 59.0 °F 44.1 °F 58% 29.93 in 10.0 mi NW 9.2 mph - N/A   Clear